Regional Weather Roundup
Issued by NWS

Home | Current Version | Previous Version | Graphics & Text | Print | Product List | Glossary On
Versions: 1 2 3 4 5 6 7 8 9 10 11 12 13 14 15 16 17 18 19 20 21 22 23 24 25 26 27 28 29 30 31 32 33 34 35 36 37 38 39 40 41 42 43 44 45 46 47 48 49 50
004
ASUS45 KCYS 290310
RWRWY

WYOMING REGIONAL WEATHER ROUNDUP
NATIONAL WEATHER SERVICE CHEYENNE WY
900 PM MDT WED SEP 28 2016

NOTE:  "FAIR" INDICATES FEW OR NO CLOUDS BELOW 12,000 FEET
WITH NO SIGNIFICANT WEATHER AND/OR OBSTRUCTIONS TO VISIBILITY.

WYZ001-290400-
YELLOWSTONE NATIONAL PARK

CITY           SKY/WX    TMP DP  RH WIND       PRES   REMARKS
LK YELLOWSTONE   N/A     44  35  70 CALM      30.41R
W YELLOWSTONE  NOT AVBL

$$
WYZ002>013-054>058-071-098>099-290400-
NORTHERN WYOMING

CITY           SKY/WX    TMP DP  RH WIND       PRES   REMARKS
JACKSON        FAIR      50  37  62 N9        30.28R
CODY           FAIR      61  45  55 CALM      30.24R
GREYBULL       FAIR      66  44  45 E5        30.17R
WORLAND        FAIR      65  39  38 SE13      30.19R
SHERIDAN       FAIR      60  40  47 S6        30.21R
BUFFALO          N/A     62  37  39 SW5       30.30
GILLETTE       FAIR      55  47  74 S7        30.28R
HULETT         FAIR      61  45  55 E5        30.30F
NEWCASTLE      FAIR      63  43  48 SE8G17    30.32S

$$
WYZ014>020-022>026-101>103-290400-
CENTRAL WYOMING

CITY           SKY/WX    TMP DP  RH WIND       PRES   REMARKS
BIG PINEY      FAIR      56  30  37 W5        30.35R
PINEDALE       MOCLDY    54  30  40 CALM      30.37R
DUBOIS         FAIR      52  37  58 W5        30.38R
LANDER         FAIR      64  38  38 SW16      30.26R
RIVERTON       FAIR      64  39  39 E12G22    30.27R
CASPER         FAIR      61  36  39 E6        30.30R
DOUGLAS        FAIR      57  36  45 SE6       30.33R

$$
WYZ021-027>030-104>119-290400-
SOUTHERN WYOMING

CITY           SKY/WX    TMP DP  RH WIND       PRES   REMARKS
EVANSTON       CLOUDY    64  33  31 CALM      30.32R
FORT BRIDGER   FAIR      59  33  37 SE7       30.33R
ROCK SPRINGS   FAIR      62  33  33 S6        30.32R
DIXON          FAIR      55  33  44 NE6       30.34R
RAWLINS        FAIR      60  34  37 NE14      30.34R
SARATOGA       FAIR      55  32  41 SE12      30.36R
LARAMIE        FAIR      58  31  35 SE12      30.43R
CHEYENNE       FAIR      57  37  47 E9        30.40R
TORRINGTON     FAIR      59  41  51 E8        30.30R
PINE BLUFFS    FAIR      61  32  33 E10G17    30.37R

$$




USA.gov is the U.S. government's official web portal to all federal, state and local government web resources and services.